Location: Jewell
(31.5029°N, 97.1961°W)
Time: 16:31:00
(UTC+00:00)

ISS - Visible Passes

Search period start: 07 December 2025 00:00
Search period end: 17 December 2025 00:00
Orbit: 416 x 421 km, 51.6° (Epoch: 06 December)

Date Brightness Start Highest point End Pass type
(mag) Time Alt. Az. Time Alt. Az. Time Alt. Az.
11 Dec -1.8 12:19:39 10° SSW 12:22:43 33° SE 12:25:47 10° ENE visible
12 Dec -0.8 11:32:38 10° S 11:34:55 17° SE 11:37:13 10° E visible
13 Dec -3.8 12:20:11 10° SW 12:23:30 59° NW 12:26:50 10° NE visible
14 Dec -3.5 11:35:35 66° SE 11:35:35 66° SE 11:38:52 10° NE visible
15 Dec -2.2 12:23:50 18° NW 12:24:25 19° NW 12:26:56 10° NNE visible
16 Dec -1.3 11:38:39 14° NNE 11:38:39 14° NNE 11:39:20 10° NNE visible
